This is the latest recevied weather packets stored in our database for station/object G7UKK-10. If no packets are shown the sender has not sent any weather packets the latest 10 day(s).
| Time | Temp. | Humidity | Pressure | Rain* | Wind** | Luminosity | Snow |
|---|---|---|---|---|---|---|---|
| 1778179216 | 12.22° C | 64% | 1015.9 hPa | 0 mm | - | - | - |
| 1778178316 | 12.78° C | 63% | 1016 hPa | 0 mm | - | - | - |
| 1778177416 | 12.78° C | 63% | 1015.9 hPa | 0 mm | - | - | - |
| 1778176516 | 12.78° C | 63% | 1015.7 hPa | 0 mm | - | - | - |
| 1778175616 | 13.33° C | 60% | 1015.9 hPa | 0 mm | - | - | - |
| 1778174716 | 13.33° C | 60% | 1016 hPa | 0 mm | - | - | - |
| 1778173816 | 13.33° C | 60% | 1015.9 hPa | 0 mm | - | - | - |
| 1778172916 | 13.33° C | 60% | 1015.9 hPa | 0 mm | - | - | - |
| 1778172017 | 13.33° C | 59% | 1016 hPa | 0 mm | - | - | - |
| 1778171117 | 13.33° C | 59% | 1015.9 hPa | 0 mm | - | - | - |
| 1778170217 | 13.33° C | 62% | 1016.1 hPa | 0 mm | - | - | - |
| 1778169317 | 12.78° C | 64% | 1016.1 hPa | 0 mm | - | - | - |
| 1778168417 | 12.78° C | 65% | 1016.3 hPa | 0 mm | - | - | - |
| 1778167517 | 12.22° C | 65% | 1016.5 hPa | 0 mm | - | - | - |
| 1778166617 | 12.22° C | 66% | 1016.4 hPa | 0 mm | - | - | - |
| 1778165717 | 12.22° C | 65% | 1016.7 hPa | 0 mm | - | - | - |
| 1778164817 | 12.22° C | 65% | 1016.6 hPa | 0 mm | - | - | - |
| 1778163917 | 12.22° C | 67% | 1016.7 hPa | 0 mm | - | - | - |
| 1778163017 | 12.22° C | 66% | 1017 hPa | 0 mm | - | - | - |
| 1778162117 | 12.22° C | 65% | 1016.9 hPa | 0 mm | - | - | - |
| 1778161217 | 12.22° C | 64% | 1016.8 hPa | 0 mm | - | - | - |
| 1778160317 | 12.78° C | 63% | 1016.9 hPa | 0 mm | - | - | - |
| 1778159417 | 12.78° C | 64% | 1016.8 hPa | 0 mm | - | - | - |
| 1778158517 | 12.78° C | 65% | 1016.8 hPa | 0 mm | - | - | - |
| 1778157617 | 12.78° C | 67% | 1016.8 hPa | 0 mm | - | - | - |
* Rain latest hour (hover to see other rain measurements)
** Current wind speed in m/s (hover to see current wind gust speed)